Regional Weather Roundup
Issued by NWS Sterling, VA

Home | Current Version | Previous Version | Text Only | Print | Product List | Glossary Off
Versions: 1 2 3 4 5 6 7 8 9 10 11 12 13 14 15 16 17 18 19 20 21 22 23 24 25 26 27 28 29 30 31 32 33 34 35 36 37 38 39 40 41 42 43 44 45 46 47 48 49 50

000
ASUS41 KLWX 310210
RWRLWX

REGIONAL WEATHER ROUNDUP
NATIONAL WEATHER SERVICE BALTIMORE MD/WASHINGTON DC
900 PM EST FRI JAN 30 2015

Note: "FAIR" indicates few or no clouds below 12,000 feet
with no significant weather and/or obstructions to visibility.
 TC=TEMPERATURE CELSIUS

 * =Non NWS site. Station does not report precipitation (e.g. rain,
    snow, etc.), thunder, or fog.

DCZ001-MDZ009-015-VAZ040>042-051-053>054-310300-
WASHINGTON METRO

CITY           SKY/WX    TMP DP  RH WIND       PRES   REMARKS
WASHINGTON NAT PTCLDY    27   6  41 NW20G26   30.26R WCI  13
DULLES         PTCLDY    22   4  46 NW22G39   30.25R WCI   6
ANDREWS AFB    CLEAR     24   5  45 NW33G46   30.19S WCI   5
FT BELVOIR     CLEAR     24   5  43 NW20G36   30.26R WCI  10
QUANTICO       CLEAR     25   4  40 N26G39    30.29R WCI   9
COLLEGE PARK*  CLEAR     27   9  46 NW12G28   30.24R WCI  16
LEESBURG*      PTCLDY    23  10  58 NW16G29   30.28R WCI  10
GAITHERSBURG*  CLEAR     19   5  53 NW21G28   30.26R WCI   3

$$

MDZ006>007-011-014-310300-
BALTIMORE METRO

CITY           SKY/WX    TMP DP  RH WIND       PRES   REMARKS
BWI AIRPORT    CLEAR     23   7  50 W16G28    30.20R WCI  10
MD SCIENCE CTR   N/A     25   7  46 MISG      30.21R
MARTIN STATE   CLEAR     25  10  54 W28G35    30.20R WCI   8
ANNAPOLIS      CLEAR     26  10  50 NW21G32   30.19R WCI  12
FORT MEADE*    CLEAR     25   9  50 NW20G29   30.25R WCI  11

$$

MDZ012-015-019>023-310300-
MARYLAND EASTERN SHORE

CITY           SKY/WX    TMP DP  RH WIND       PRES   REMARKS
OCEAN CITY     CLEAR     28  13  53 NW18G31   30.10R WCI  15
SALISBURY      CLEAR     30  11  45 NW20G39   30.13R WCI  17
BAY BRIDGE AP*   N/A     27  10  50 NW26G35   30.20R WCI  11
CAMBRIDGE*     CLEAR     30  12  47 NW17G32   30.16R WCI  18

$$

MDZ017>025-310300-
SOUTHERN MARYLAND

CITY           SKY/WX    TMP DP  RH WIND       PRES   REMARKS
PATUXENT RIVER CLEAR     28   9  44 NW30G45   30.17R WCI  12
ST INIGOES     CLEAR     28   7  41 NW21G33   30.18R WCI  15
LEONARDTOWN*   NOT AVBL

$$

MDZ003>005-310300-
NORTH CENTRAL MARYLAND

CITY           SKY/WX    TMP DP  RH WIND       PRES   REMARKS
FREDERICK*     PTCLDY    25   5  42 NW12G22   30.29R WCI  14
HAGERSTOWN APT PTCLDY    20   6  55 NW22G32   30.25R WCI   3
WESTMINSTER*   PTCLDY    19   7  58 NW17G23   30.19R WCI   4

$$

MDZ501>502-310300-
WESTERN MARYLAND

CITY           SKY/WX    TMP DP  RH WIND       PRES   REMARKS
OAKLAND*       CLOUDY     9 N/A N/A NW9G18    30.15S FOG     WCI  -5
CUMBERLAND*    MOCLDY    19   3  49 NW8       30.37S WCI   9

$$

VAZ025>031-310300-
SHENANDOAH VALLEY

CITY           SKY/WX    TMP DP  RH WIND       PRES   REMARKS
WINCHESTER*    CLOUDY    21   5  49 NW24G33   30.29S WCI   4
FRONT ROYAL*   MOCLDY    23   9  54 NW16G23   30.27S WCI  10
LURAY*         CLOUDY    27  10  50 NE3       30.26S
NEW MARKET*    FAIR      22   6  50 N10       30.27R WCI  11
STAUNTON*      CLEAR     24   7  47 W3        30.26R
WAYNESBORO*    FAIR      22   5  47 NW9G16    30.22R WCI  12

$$

WVZ021-048>050-054>055-310300-
EASTERN WEST VIRGINIA PANHANDLE

CITY           SKY/WX    TMP DP  RH WIND       PRES   REMARKS
MARTINSBURG    PTCLDY    21   5  50 NW17G31   30.30R WCI   7
PETERSBURG*    PTCLDY    22   5  48 NW13G23   30.34S WCI   9

$$

VAZ036>039-050-310300-
CENTRAL FOOTHILLS

CITY           SKY/WX    TMP DP  RH WIND       PRES   REMARKS
CHARLOTTESVILL PTCLDY    27   5  39 SE5       30.24R
CULPEPER*      CLEAR     25   9  50 N13       30.26R WCI  13
ORANGE*        CLEAR     28   9  43 NW10      30.26S WCI  19
GORDONSVILLE*  FAIR      28   5  38 NW6       30.24R
WARRENTON*     FAIR      26  12  56 NW24G35   30.25R WCI  10

$$

VAZ055>057-310300-
NORTH AND CENTRAL PIEDMONT

CITY           SKY/WX    TMP DP  RH WIND       PRES   REMARKS
FREDERICKSBRG* CLEAR     28   8  42 N10G23    30.26R WCI  19
STAFFORD*      CLEAR     25   5  43 NW23      30.29R WCI  10

$$

NCZ024-NYZ072-PAZ021-071-VAZ022-071-310300-
OTHER REGIONAL OBSERVATIONS

CITY           SKY/WX    TMP DP  RH WIND       PRES   REMARKS
NEW YORK CITY  CLEAR     22   6  50 NW18G31   30.01F WCI   7
PHILADELPHIA   MOCLDY    27   7  42 NW29G37   30.11R WCI  11
PITTSBURGH     FLURRIES  14   7  73 W14       30.37R WCI  -1
ROANOKE        PTCLDY    25   7  46 NW15G26   30.29R WCI  13
RICHMOND       CLEAR     31   9  39 N13       30.23R WCI  21
RALEIGH        CLEAR     33   7  33 N6        30.27R

$$

ANZ530>537-310300-
MARINE OBSERVATIONS

STATION/POSITION TIME  TEMP    WIND        PRES
                       AIR SEA DIR/SP/G
                 (UTC) (F)     (DEG/KT/KT) (MB)
THOMAS PT LIGHT  0200   26 36  320/ 25/ 30 1023.0R
BALT KEY BRIDGE  0200   26     300/ 28/ 34 1022.0R
COVE POINT       0200   26     330/ 27/ 34 1021.5R
LEWISETTA        0200   29 36  320/ 20/ 29 1022.3R
SOLOMONS ISLAND  0200      37                N/A
PINEY POINT      0200          340/ 30/ 34   N/A

$$



USA.gov is the U.S. government's official web portal to all federal, state and local government web resources and services.